This demonstration page uses our WeatherBlox Daily Observations layout. Learn more.

Left ArrowRight Arrow

Hourly Observations for July 13, 2020

Temp ( °F °C ) Dew Point ( °F °C ) Humidity (%) Winds ( mph kmh ) Pressure ( in mb ) Visibility ( mi km ) Precip ( " mm )
12:54 am 00:54 Clear 67 19.4 62 16.7 84 84 S 7 11 29.92 1013 10 16.0934 0 0
1:54 am 01:54 Clear 69 20.6 62 16.7 78 78 S 6 9 29.89 1012 10 16.0934 0 0
2:54 am 02:54 Clear 69 20.6 62 16.7 78 78 S 5 7 29.88 1012 10 16.0934 0 0
3:54 am 03:54 Clear 67 19.4 62 16.7 84 84 S 5 7 29.89 1012 10 16.0934 0 0
4:54 am 04:54 Clear 66 18.9 62 16.7 87 87 SSE 8 13 29.87 1012 10 16.0934 0 0
5:54 am 05:54 Clear 66 18.9 62 16.7 87 87 S 8 13 29.87 1012 10 16.0934 0 0
6:54 am 06:54 Sunny 67 19.4 63 17.2 87 87 S 6 9 29.88 1012 10 16.0934 0 0
7:54 am 07:54 Sunny 72 22.2 64 17.8 76 76 S 10 17 29.87 1012 10 16.0934 0 0
8:54 am 08:54 Sunny 75 23.9 64 17.8 69 69 SSE 13 20 29.87 1012 10 16.0934 0 0
9:54 am 09:54 Sunny 80 26.7 66 18.9 62 62 SSE 15 24 29.85 1011 10 16.0934 0 0
10:54 am 10:54 Sunny 84 28.9 65 18.3 53 53 S 16 26 29.84 1010 10 16.0934 0 0
11:54 am 11:54 Sunny 86 30 66 18.9 51 51 S 18 30 29.83 1010 10 16.0934 0 0
12:54 pm 12:54 Sunny 87 30.6 66 18.9 50 50 S 17 28 29.82 1010 10 16.0934 0 0
1:54 pm 13:54 Sunny 88 31.1 67 19.4 50 50 S 18 30 29.8 1009 10 16.0934 0 0
2:54 pm 14:54 Sunny 89 31.7 67 19.4 48 48 S 20 31 29.8 1009 10 16.0934 0 0
3:54 pm 15:54 Sunny 90 32.2 67 19.4 47 47 SSW 18 30 29.79 1009 10 16.0934 0 0
4:54 pm 16:54 Sunny 90 32.2 68 20 48 48 S 18 30 29.77 1008 10 16.0934 0 0
5:54 pm 17:54 Sunny 89 31.7 68 20 50 50 S 22 35 29.76 1008 10 16.0934 0 0
6:54 pm 18:54 Sunny 88 31.1 66 18.9 48 48 S 20 31 29.75 1008 10 16.0934 0 0
7:54 pm 19:54 Sunny 85 29.4 66 18.9 53 53 S 13 20 29.76 1008 10 16.0934 0 0
8:54 pm 20:54 Sunny 82 27.8 66 18.9 58 58 S 10 17 29.77 1008 10 16.0934 0 0
9:54 pm 21:54 Clear 80 26.7 68 20 67 67 S 9 15 29.8 1009 10 16.0934 0 0
10:54 pm 22:54 Clear 79 26.1 66 18.9 65 65 SSE 13 20 29.79 1009 10 16.0934 0 0
11:54 pm 23:54 Clear 75 23.9 65 18.3 71 71 S 7 11 29.8 1009 10 16.0934 0 0

Powered by AerisWeather